User: anonymous   Login
Location: Bangkok
(13.7500°N, 100.5170°E)
Time: 11:41:46
(UTC+07:00)
Language:

Cosmos 1898 Rocket - Orbit

View from above orbital plane
View from above orbital plane
View from above satellite
View from above satellite

Ground track
Ground track

The orbit data is extracted from the following two-line orbital elements,

1 18586U 87098B   17018.20215829  .00000147  00000-0  58757-4 0  9994
2 18586  74.0048 211.5125 0021887 301.9865 188.9558 14.36758676525827
Epoch (UTC): 18 January 2017 04:51:06
Eccentricity: 0.0021887
inclination: 74.0048°
perigee height: 753 km
apogee height: 785 km
right ascension of ascending node: 211.5125°
argument of perigee: 301.9865°
revolutions per day: 14.36758676
mean anomaly at epoch: 188.9558°
orbit number at epoch: 52582

The dashed part of the orbit path shows where the satellite is in the earth's shadow,  

DLR